This is the latest recevied weather packets stored in our database for station/object KE0FIN. If no packets are shown the sender has not sent any weather packets the latest 10 day(s).
| Time | Temp. | Humidity | Pressure | Rain* | Wind** | Luminosity | Snow |
|---|---|---|---|---|---|---|---|
| 1777874749 | 20.56° C | 43% | 1058 hPa | 0 mm | - | 0 W/m² | - |
| 1777874445 | 21.11° C | 43% | 1057.9 hPa | 0 mm | - | 0 W/m² | - |
| 1777874144 | 21.11° C | 42% | 1058 hPa | 0 mm | - | 0 W/m² | - |
| 1777873841 | 20.56° C | 43% | 1058.1 hPa | 0 mm | - | 0 W/m² | - |
| 1777873537 | 21.11° C | 42% | 1058.3 hPa | 0 mm | - | 0 W/m² | - |
| 1777873235 | 20.56° C | 42% | 1058.2 hPa | 0 mm | - | 0 W/m² | - |
| 1777872931 | 20.56° C | 42% | 1058.1 hPa | 0 mm | - | 0 W/m² | - |
| 1777872629 | 21.11° C | 42% | 1058.3 hPa | 0 mm | - | 0 W/m² | - |
| 1777872326 | 21.11° C | 41% | 1058.2 hPa | 0 mm | - | 0 W/m² | - |
| 1777872024 | 20.56° C | 41% | 1058.2 hPa | 0 mm | - | 0 W/m² | - |
| 1777871720 | 21.11° C | 41% | 1058.3 hPa | 0 mm | - | 0 W/m² | - |
| 1777871417 | 21.11° C | 40% | 1058.3 hPa | 0 mm | - | 0 W/m² | - |
| 1777871114 | 21.11° C | 40% | 1058.3 hPa | 0 mm | - | 0 W/m² | - |
| 1777870811 | 21.11° C | 39% | 1058.3 hPa | 0 mm | - | 0 W/m² | - |
| 1777870508 | 21.11° C | 39% | 1058.3 hPa | 0 mm | - | 0 W/m² | - |
| 1777870203 | 21.67° C | 38% | 1058.2 hPa | 0 mm | - | 0 W/m² | - |
| 1777869901 | 21.67° C | 38% | 1058.2 hPa | 0 mm | - | 0 W/m² | - |
| 1777869597 | 21.67° C | 37% | 1058.2 hPa | 0 mm | - | 0 W/m² | - |
| 1777869294 | 21.67° C | 37% | 1058.3 hPa | 0 mm | - | 0 W/m² | - |
| 1777868992 | 21.67° C | 36% | 1058.1 hPa | 0 mm | - | 0 W/m² | - |
| 1777868688 | 22.22° C | 36% | 1058.3 hPa | 0 mm | - | 0 W/m² | - |
| 1777868385 | 22.22° C | 35% | 1058.5 hPa | 0 mm | - | 0 W/m² | - |
| 1777868081 | 22.22° C | 35% | 1058.7 hPa | 0 mm | - | 0 W/m² | - |
| 1777867777 | 22.78° C | 35% | 1058.5 hPa | 0 mm | - | 0 W/m² | - |
| 1777867475 | 22.22° C | 35% | 1058.5 hPa | 0 mm | - | 0 W/m² | - |
* Rain latest hour (hover to see other rain measurements)
** Current wind speed in m/s (hover to see current wind gust speed)